FW3233 Weather Reports


time (UTC)temp
C
wind
direction
speed
KPH
gust
KPH
rain 1hr
cm
rain 24hr
cm
rain mn
cm
humidity
%
barometer
mb
20260510153440 24 13 1.6 1.6 0.00 0.00 0.00 78 1016.8
20260510152937 24 35 0.0 1.6 0.00 0.00 0.00 81 1016.7
20260510152435 23 48 0.0 1.6 0.00 0.00 0.00 80 1016.7
20260510151931 23 50 0.0 0.0 0.00 0.00 0.00 81 1016.9
20260510151428 23 59 1.6 1.6 0.00 0.00 0.00 81 1016.8
20260510150924 23 75 0.0 0.0 0.00 0.00 0.00 81 1016.8
20260510150420 23 338 0.0 0.0 0.00 0.00 0.00 82 1016.8
20260510145916 22 120 0.0 0.0 0.00 0.00 0.00 83 1016.8
20260510145413 22 180 0.0 3.2 0.00 0.00 0.00 86 1016.9
20260510144909 22 187 3.2 3.2 0.00 0.00 0.00 85 1016.8
20260510144406 21 173 1.6 3.2 0.00 0.00 0.00 86 1016.7
20260510143901 22 191 1.6 3.2 0.00 0.00 0.00 85 1016.8
20260510143357 21 177 1.6 3.2 0.00 0.00 0.00 86 1016.8
20260510142854 21 172 1.6 1.6 0.00 0.00 0.00 87 1016.8
20260510142351 20 188 1.6 3.2 0.00 0.00 0.00 87 1016.7
20260510141848 20 192 0.0 0.0 0.00 0.00 0.00 87 1016.5
20260510141345 20 178 0.0 1.6 0.00 0.00 0.00 87 1016.4
20260510140842 20 173 1.6 3.2 0.00 0.00 0.00 85 1016.2
20260510140337 20 55 0.0 1.6 0.00 0.00 0.00 84 1016.3
20260510135831 20 9 0.0 0.0 0.00 0.00 0.00 84 1016.4
20260510135327 19 8 0.0 1.6 0.00 0.00 0.00 87 1016.5
20260510134825 19 10 1.6 1.6 0.00 0.00 0.00 87 1016.3
20260510134322 18 12 0.0 0.0 0.00 0.00 0.00 87 1016.0
20260510133818 18 12 0.0 0.0 0.00 0.00 0.00 87 1016.0
20260510133314 18 10 0.0 0.0 0.00 0.00 0.00 88 1016.1
20260510132809 18 71 0.0 0.0 0.00 0.00 0.00 88 1016.1
20260510132308 18 89 0.0 0.0 0.00 0.00 0.00 88 1016.2
20260510131805 18 93 0.0 0.0 0.00 0.00 0.00 88 1016.1
20260510131302 17 100 0.0 0.0 0.00 0.00 0.00 89 1015.9
20260510130759 17 100 0.0 0.0 0.00 0.00 0.00 89 1015.9
20260510130255 17 100 0.0 0.0 0.00 0.00 0.00 89 1015.8
20260510125752 17 99 0.0 0.0 0.00 0.00 0.00 89 1015.8
20260510125248 17 95 0.0 0.0 0.00 0.00 0.00 90 1015.6
20260510124745 17 94 0.0 0.0 0.00 0.00 0.00 90 1015.8
20260510124242 16 91 0.0 1.6 0.00 0.00 0.00 90 1015.7
20260510123737 16 61 0.0 0.0 0.00 0.00 0.00 89 1015.5
20260510123233 16 60 0.0 0.0 0.00 0.00 0.00 88 1015.5
20260510122724 16 60 0.0 0.0 0.00 0.00 0.00 89 1015.5
20260510122221 16 60 0.0 0.0 0.00 0.00 0.00 90 1015.3
20260510121717 16 59 0.0 0.0 0.00 0.00 0.00 90 1015.4
20260510121215 16 111 0.0 0.0 0.00 0.00 0.00 92 1015.1
20260510120712 16 111 0.0 0.0 0.00 0.00 0.00 92 1015.1
20260510120208 16 111 1.6 1.6 0.00 0.00 0.00 91 1015.0
20260510115704 16 112 0.0 0.0 0.00 0.00 0.00 92 1014.8
20260510115203 16 112 0.0 0.0 0.00 0.00 0.00 92 1014.9
20260510114657 16 112 0.0 0.0 0.00 0.00 0.00 91 1014.6
20260510114154 16 112 0.0 0.0 0.00 0.00 0.00 90 1014.6
20260510113643 16 113 0.0 0.0 0.00 0.00 0.00 91 1014.7
20260510113141 15 113 0.0 0.0 0.00 0.00 0.00 91 1014.8
20260510112637 15 113 0.0 0.0 0.00 0.00 0.00 91 1014.9
20260510112134 15 113 0.0 0.0 0.00 0.00 0.00 92 1014.9
20260510111630 15 113 0.0 0.0 0.00 0.00 0.00 92 1014.9
20260510111126 15 113 0.0 0.0 0.00 0.00 0.00 92 1014.8
20260510110622 15 113 0.0 0.0 0.00 0.00 0.00 92 1014.9
20260510110120 15 113 0.0 0.0 0.00 0.00 0.00 92 1014.9
20260510105615 15 113 0.0 0.0 0.00 0.00 0.00 92 1014.8
20260510105109 16 113 0.0 0.0 0.00 0.00 0.00 92 1014.8
20260510104607 16 113 0.0 0.0 0.00 0.00 0.00 91 1015.0
20260510104103 16 113 0.0 0.0 0.00 0.00 0.00 91 1014.7
20260510103600 15 113 0.0 0.0 0.00 0.00 0.00 91 1014.8
20260510103056 16 113 0.0 0.0 0.00 0.00 0.00 91 1014.7
20260510102551 16 113 0.0 0.0 0.00 0.00 0.00 90 1014.9
20260510102048 16 113 0.0 0.0 0.00 0.00 0.00 90 1014.7
20260510101546 16 113 0.0 0.0 0.00 0.00 0.00 89 1014.9
20260510101044 16 113 0.0 0.0 0.00 0.00 0.00 89 1014.9
20260510100540 15 113 0.0 0.0 0.00 0.00 0.00 89 1014.8
20260510100037 15 113 0.0 0.0 0.00 0.00 0.00 89 1014.8
20260510095533 15 113 0.0 0.0 0.00 0.00 0.00 89 1014.7
20260510095032 16 113 0.0 0.0 0.00 0.00 0.00 89 1014.6
20260510094527 15 113 0.0 0.0 0.00 0.00 0.00 89 1014.7
20260510094023 15 113 0.0 0.0 0.00 0.00 0.00 90 1014.4
20260510093519 15 113 0.0 0.0 0.00 0.00 0.00 91 1014.5
20260510093016 15 113 0.0 0.0 0.00 0.00 0.00 89 1014.6
20260510092513 15 113 0.0 0.0 0.00 0.00 0.00 90 1014.5
20260510092012 15 113 0.0 0.0 0.00 0.00 0.00 91 1014.6
20260510091509 15 113 0.0 0.0 0.00 0.00 0.00 90 1014.5
20260510091005 15 113 0.0 0.0 0.00 0.00 0.00 90 1014.3
20260510090503 15 113 0.0 0.0 0.00 0.00 0.00 89 1014.2
20260510085958 15 113 0.0 0.0 0.00 0.00 0.00 89 1014.1
20260510085453 15 113 0.0 0.0 0.00 0.00 0.00 89 1014.2
20260510084949 15 113 0.0 0.0 0.00 0.00 0.00 89 1013.9
20260510084446 15 113 0.0 0.0 0.00 0.00 0.00 89 1013.9
20260510083943 15 113 0.0 0.0 0.00 0.00 0.00 88 1013.7
20260510083439 15 113 0.0 0.0 0.00 0.00 0.00 88 1013.7
20260510082935 15 113 0.0 0.0 0.00 0.00 0.00 86 1013.6
20260510082433 15 113 0.0 0.0 0.00 0.00 0.00 87 1013.6
20260510081932 15 113 0.0 0.0 0.00 0.00 0.00 87 1013.6
20260510081428 15 113 0.0 0.0 0.00 0.00 0.00 88 1013.5
20260510080924 15 113 0.0 0.0 0.00 0.00 0.00 88 1013.7
20260510080423 15 113 0.0 0.0 0.00 0.00 0.00 89 1013.7
20260510075920 15 113 0.0 0.0 0.00 0.00 0.00 89 1013.8
20260510075418 15 113 0.0 0.0 0.00 0.00 0.00 89 1013.6
20260510074915 15 113 0.0 0.0 0.00 0.00 0.00 89 1013.7
20260510074412 15 113 0.0 0.0 0.00 0.00 0.00 89 1013.6
20260510073908 15 113 0.0 0.0 0.00 0.00 0.00 89 1013.5
20260510073404 16 113 0.0 0.0 0.00 0.00 0.00 87 1013.6
20260510072900 16 113 0.0 0.0 0.00 0.00 0.00 87 1013.7
20260510072357 16 113 0.0 0.0 0.00 0.00 0.00 87 1013.8
20260510071853 16 113 0.0 0.0 0.00 0.00 0.00 86 1013.7
20260510071349 15 113 0.0 0.0 0.00 0.00 0.00 87 1013.7
20260510070848 16 113 0.0 0.0 0.00 0.00 0.00 87 1013.4
20260510070344 16 113 0.0 0.0 0.00 0.00 0.00 86 1013.5
20260510065839 16 113 0.0 0.0 0.00 0.00 0.00 86 1013.3
20260510065336 16 113 0.0 0.0 0.00 0.00 0.00 85 1013.5
20260510064832 16 113 0.0 0.0 0.00 0.00 0.00 85 1013.5
20260510064331 16 114 0.0 0.0 0.00 0.00 0.00 84 1013.5
20260510063826 16 113 0.0 0.0 0.00 0.00 0.00 84 1013.6
20260510063323 16 113 0.0 0.0 0.00 0.00 0.00 83 1013.7
20260510062820 16 114 0.0 0.0 0.00 0.00 0.00 81 1013.5
20260510062315 16 114 0.0 0.0 0.00 0.00 0.00 81 1013.4
20260510061805 16 114 0.0 0.0 0.00 0.00 0.00 81 1013.5
20260510061302 16 114 0.0 0.0 0.00 0.00 0.00 81 1013.8
20260510060758 16 113 0.0 0.0 0.00 0.00 0.00 81 1013.6
20260510060250 16 114 0.0 0.0 0.00 0.00 0.00 80 1013.6
20260510055746 16 114 0.0 0.0 0.00 0.00 0.00 77 1013.6
20260510055245 16 114 0.0 0.0 0.00 0.00 0.00 80 1013.8
20260510054744 16 114 0.0 0.0 0.00 0.00 0.00 81 1013.6
20260510054241 16 114 0.0 0.0 0.00 0.00 0.00 80 1013.4
20260510053740 17 114 0.0 0.0 0.00 0.00 0.00 79 1013.5
20260510053236 17 114 0.0 0.0 0.00 0.00 0.00 77 1013.4
20260510052732 17 114 0.0 0.0 0.00 0.00 0.00 77 1013.4
20260510052229 17 114 0.0 0.0 0.00 0.00 0.00 76 1013.1
20260510051725 17 114 0.0 0.0 0.00 0.00 0.00 77 1013.3
20260510051221 17 113 0.0 0.0 0.00 0.00 0.00 77 1013.0
20260510050718 17 113 0.0 0.0 0.00 0.00 0.00 76 1013.0
20260510050216 17 113 0.0 0.0 0.00 0.00 0.00 73 1013.1
20260510045712 17 114 0.0 0.0 0.00 0.00 0.00 69 1012.9
20260510045209 17 114 0.0 0.0 0.00 0.00 0.00 70 1013.0
20260510044705 18 114 0.0 0.0 0.00 0.00 0.00 72 1012.9
20260510044203 18 113 0.0 0.0 0.00 0.00 0.00 69 1013.1
20260510043658 18 114 0.0 0.0 0.00 0.00 0.00 68 1012.9
20260510043155 18 114 0.0 0.0 0.00 0.00 0.00 66 1012.8
20260510042652 18 114 0.0 0.0 0.00 0.00 0.00 67 1012.8
20260510042148 18 114 0.0 0.0 0.00 0.00 0.00 65 1012.9
20260510041646 18 114 0.0 0.0 0.00 0.00 0.00 68 1012.8
20260510041143 18 114 0.0 0.0 0.00 0.00 0.00 65 1012.6
20260510040640 19 114 0.0 0.0 0.00 0.00 0.00 64 1012.7
20260510040137 18 114 0.0 0.0 0.00 0.00 0.00 64 1012.9
20260510035632 19 114 0.0 0.0 0.00 0.00 0.00 64 1012.8
20260510035127 19 114 0.0 0.0 0.00 0.00 0.00 63 1012.9
20260510034625 19 114 0.0 0.0 0.00 0.00 0.00 63 1013.1
20260510034121 19 114 0.0 0.0 0.00 0.00 0.00 62 1012.8
20260510033618 19 114 0.0 0.0 0.00 0.00 0.00 61 1012.8
20260510033116 19 114 0.0 0.0 0.00 0.00 0.00 62 1012.9
20260510032612 19 114 0.0 0.0 0.00 0.00 0.00 62 1012.9
20260510032107 19 114 0.0 0.0 0.00 0.00 0.00 63 1012.7
20260510031602 19 113 0.0 0.0 0.00 0.00 0.00 62 1012.6
20260510031059 20 114 0.0 0.0 0.00 0.00 0.00 61 1012.5
20260510030554 20 114 0.0 0.0 0.00 0.00 0.00 61 1012.5
20260510030051 20 114 0.0 0.0 0.00 0.00 0.00 61 1012.7
20260510025543 20 114 0.0 0.0 0.00 0.00 0.00 61 1012.6
20260510025040 20 114 0.0 0.0 0.00 0.00 0.00 61 1012.5
20260510024536 20 114 0.0 0.0 0.00 0.00 0.00 60 1012.4
20260510024032 20 114 0.0 0.0 0.00 0.00 0.00 61 1012.4
20260510023523 20 114 0.0 0.0 0.00 0.00 0.00 60 1012.5
20260510023021 20 114 0.0 0.0 0.00 0.00 0.00 61 1012.3
20260510022520 20 114 0.0 0.0 0.00 0.00 0.00 61 1012.2
20260510022019 20 114 0.0 0.0 0.00 0.00 0.00 62 1012.2
20260510021516 20 113 0.0 0.0 0.00 0.00 0.00 62 1012.3
20260510021014 20 114 0.0 0.0 0.00 0.00 0.00 61 1012.1
20260510020508 21 113 0.0 0.0 0.00 0.00 0.00 61 1011.8
20260510020005 21 113 0.0 0.0 0.00 0.00 0.00 60 1012.0
20260510015500 21 113 0.0 0.0 0.00 0.00 0.00 62 1011.9
20260510014956 21 113 0.0 0.0 0.00 0.00 0.00 61 1011.9
20260510014454 21 113 0.0 0.0 0.00 0.00 0.00 63 1011.8
20260510013950 21 113 0.0 0.0 0.00 0.00 0.00 62 1011.8
20260510013445 21 113 0.0 0.0 0.00 0.00 0.00 62 1011.8
20260510012941 21 113 0.0 0.0 0.00 0.00 0.00 62 1011.7
20260510012436 21 113 0.0 0.0 0.00 0.00 0.00 62 1011.8
20260510011931 21 113 0.0 0.0 0.00 0.00 0.00 62 1011.6
20260510011425 22 113 0.0 0.0 0.00 0.00 0.00 61 1011.5
20260510010921 22 113 0.0 0.0 0.00 0.00 0.00 60 1011.5
20260510010419 22 113 0.0 0.0 0.00 0.00 0.00 59 1011.4
20260510005917 22 113 0.0 0.0 0.00 0.00 0.00 59 1011.5
20260510005412 22 113 0.0 0.0 0.00 0.00 0.00 58 1011.4
20260510004909 23 113 0.0 0.0 0.00 0.00 0.00 57 1011.3
20260510004407 23 112 0.0 0.0 0.00 0.00 0.00 56 1011.4
20260510003904 23 112 0.0 0.0 0.00 0.00 0.00 55 1011.2
20260510003401 23 112 0.0 0.0 0.00 0.00 0.00 55 1011.2
20260510002900 23 112 0.0 0.0 0.00 0.00 0.00 54 1011.1
20260510002358 23 112 0.0 0.0 0.00 0.00 0.00 53 1011.1
20260510001854 23 112 0.0 0.0 0.00 0.00 0.00 53 1010.9
20260510001352 24 112 0.0 0.0 0.00 0.00 0.00 52 1011.0
20260510000848 24 111 0.0 3.2 0.00 0.00 0.00 52 1011.0
20260510000348 25 263 0.0 0.0 0.00 0.00 0.00 51 1011.1
20260509235842 25 263 0.0 1.6 0.00 0.00 0.00 52 1010.9
20260509235339 25 259 0.0 1.6 0.00 0.00 0.00 52 1010.8
20260509234835 25 259 0.0 0.0 0.00 0.00 0.00 51 1010.8
20260509234332 25 259 0.0 1.6 0.00 0.00 0.00 51 1010.7
20260509233830 25 262 0.0 1.6 0.00 0.00 0.00 49 1010.9
20260509233328 25 269 0.0 0.0 0.00 0.00 0.00 49 1010.5
20260509232822 25 269 0.0 0.0 0.00 0.00 0.00 49 1010.6
20260509232321 26 272 0.0 1.6 0.00 0.00 0.00 47 1010.7
20260509231817 26 286 1.6 1.6 0.00 0.00 0.00 48 1010.5
20260509231314 26 286 1.6 3.2 0.00 0.00 0.00 44 1010.5
20260509230812 26 193 1.6 3.2 0.00 0.00 0.00 43 1010.6
20260509230308 26 208 0.0 1.6 0.00 0.00 0.00 43 1010.5
20260509225803 26 315 0.0 0.0 0.00 0.00 0.00 44 1010.7
20260509225300 27 71 0.0 3.2 0.00 0.00 0.00 43 1010.5
20260509224756 27 307 0.0 1.6 0.00 0.00 0.00 42 1010.5
20260509224253 27 122 1.6 1.6 0.00 0.00 0.00 43 1010.2
20260509223750 27 179 1.6 4.8 0.00 0.00 0.00 42 1010.4
20260509223247 27 158 0.0 1.6 0.00 0.00 0.00 42 1010.4
20260509222743 28 130 1.6 1.6 0.00 0.00 0.00 42 1010.3
20260509222239 28 176 0.0 3.2 0.00 0.00 0.00 45 1010.2
20260509221734 28 229 0.0 3.2 0.00 0.00 0.00 45 1010.3
20260509221231 27 180 1.6 9.7 0.00 0.00 0.00 44 1010.2
20260509220727 28 329 1.6 1.6 0.00 0.00 0.00 45 1010.2
20260509220224 28 111 0.0 3.2 0.00 0.00 0.00 45 1010.2
20260509215719 27 263 1.6 4.8 0.00 0.00 0.00 47 1010.3
20260509215216 28 248 1.6 3.2 0.00 0.00 0.00 46 1010.1
20260509214713 28 235 0.0 4.8 0.00 0.00 0.00 47 1010.4
20260509214210 28 224 0.0 1.6 0.00 0.00 0.00 47 1010.3
20260509213707 28 304 0.0 3.2 0.00 0.00 0.00 47 1010.2
20260509213202 27 258 1.6 4.8 0.00 0.00 0.00 49 1010.2
20260509212701 28 218 0.0 3.2 0.00 0.00 0.00 47 1010.4
20260509212157 28 210 0.0 3.2 0.00 0.00 0.00 48 1010.4
20260509211653 28 183 0.0 3.2 0.00 0.00 0.00 45 1010.5
20260509211150 29 179 0.0 1.6 0.00 0.00 0.00 45 1010.4
20260509210646 29 307 0.0 3.2 0.00 0.00 0.00 42 1010.5
20260509210138 29 158 1.6 4.8 0.00 0.00 0.00 44 1010.6
20260509205633 29 325 1.6 3.2 0.00 0.00 0.00 43 1010.7
20260509205127 29 266 0.0 3.2 0.00 0.00 0.00 45 1010.7
20260509204624 28 182 0.0 4.8 0.00 0.00 0.00 47 1010.7
20260509204120 28 213 1.6 6.4 0.00 0.00 0.00 46 1010.8
20260509203616 28 194 1.6 3.2 0.00 0.00 0.00 43 1010.8
20260509203114 28 100 0.0 4.8 0.00 0.00 0.00 44 1010.9
20260509202609 28 199 0.0 3.2 0.00 0.00 0.00 43 1010.9
20260509202104 29 220 0.0 1.6 0.00 0.00 0.00 43 1011.2
20260509201605 28 215 0.0 1.6 0.00 0.00 0.00 41 1011.0
20260509201103 28 307 3.2 6.4 0.00 0.00 0.00 40 1011.1
20260509200557 28 204 1.6 4.8 0.00 0.00 0.00 39 1011.0
20260509200053 28 185 0.0 1.6 0.00 0.00 0.00 42 1011.0
20260509195549 29 142 1.6 1.6 0.00 0.00 0.00 41 1011.1
20260509195044 28 246 0.0 1.6 0.00 0.00 0.00 42 1011.2
20260509194538 28 234 1.6 3.2 0.00 0.00 0.00 46 1011.0
20260509194036 28 120 1.6 1.6 0.00 0.00 0.00 47 1011.1
20260509193531 27 340 1.6 3.2 0.00 0.00 0.00 47 1011.2
20260509193028 28 199 0.0 1.6 0.00 0.00 0.00 47 1011.1
20260509192524 29 200 1.6 4.8 0.00 0.00 0.00 50 1010.9
20260509192019 28 190 0.0 0.0 0.00 0.00 0.00 50 1011.3
20260509191514 28 152 0.0 3.2 0.00 0.00 0.00 50 1011.2
20260509191010 27 199 1.6 6.4 0.00 0.00 0.00 51 1011.1
20260509190507 28 213 1.6 1.6 0.00 0.00 0.00 51 1011.3
20260509190006 28 75 1.6 4.8 0.00 0.00 0.00 52 1011.3
20260509185503 28 151 1.6 4.8 0.00 0.00 0.00 50 1011.3
20260509184958 28 75 1.6 3.2 0.00 0.00 0.00 50 1011.2
20260509184457 27 195 0.0 1.6 0.00 0.00 0.00 52 1011.4
20260509183952 27 199 1.6 3.2 0.00 0.00 0.00 52 1011.2
20260509183447 27 151 1.6 4.8 0.00 0.00 0.00 53 1011.5
20260509182944 28 184 0.0 3.2 0.00 0.00 0.00 53 1011.7
20260509182440 28 206 0.0 1.6 0.00 0.00 0.00 52 1011.7
20260509181937 28 203 0.0 3.2 0.00 0.00 0.00 50 1011.8
20260509181435 29 113 1.6 1.6 0.00 0.00 0.00 49 1011.6
20260509180933 28 303 1.6 1.6 0.00 0.00 0.00 54 1011.6
20260509180427 27 192 1.6 4.8 0.00 0.00 0.00 50 1011.7
20260509175924 27 205 1.6 1.6 0.00 0.00 0.00 51 1011.5
20260509175415 27 28 1.6 1.6 0.00 0.00 0.00 51 1011.7
20260509174911 28 337 3.2 4.8 0.00 0.00 0.00 48 1011.9
20260509174407 28 152 0.0 3.2 0.00 0.00 0.00 49 1011.9
20260509173903 28 108 0.0 1.6 0.00 0.00 0.00 48 1011.9
20260509173357 27 181 0.0 3.2 0.00 0.00 0.00 50 1012.0
20260509172854 27 257 0.0 1.6 0.00 0.00 0.00 53 1011.9
20260509172351 28 292 4.8 4.8 0.00 0.00 0.00 48 1011.9
20260509171847 27 93 1.6 3.2 0.00 0.00 0.00 50 1011.9
20260509171343 27 181 0.0 3.2 0.00 0.00 0.00 50 1011.8
20260509170840 28 39 1.6 3.2 0.00 0.00 0.00 48 1012.0
20260509170336 27 110 0.0 3.2 0.00 0.00 0.00 46 1011.9
20260509165830 28 318 1.6 3.2 0.00 0.00 0.00 50 1011.8
20260509165325 27 69 0.0 1.6 0.00 0.00 0.00 54 1012.0
20260509164821 27 51 0.0 3.2 0.00 0.00 0.00 53 1011.8
20260509164318 27 7 3.2 4.8 0.00 0.00 0.00 55 1012.0
20260509163814 27 58 0.0 3.2 0.00 0.00 0.00 57 1011.8
20260509163311 27 6 1.6 3.2 0.00 0.00 0.00 55 1011.8
20260509162810 27 2 1.6 3.2 0.00 0.00 0.00 59 1011.8
20260509162306 27 64 1.6 3.2 0.00 0.00 0.00 55 1011.7
20260509161759 26 92 1.6 3.2 0.00 0.00 0.00 60 1011.7
20260509161255 26 14 3.2 9.7 0.00 0.00 0.00 59 1011.9
20260509160751 26 12 1.6 3.2 0.00 0.00 0.00 60 1011.8
20260509160247 26 7 1.6 3.2 0.00 0.00 0.00 60 1011.9
20260509155743 26 112 3.2 4.8 0.00 0.00 0.00 61 1011.7
20260509155240 25 134 0.0 3.2 0.00 0.00 0.00 61 1011.9
20260509154735 25 15 3.2 4.8 0.00 0.00 0.00 62 1011.7
20260509154233 -17 0.0 0.0 0.00 0.00 0.00 1011.7